Regional Weather Roundup
Issued by NWS

Home | Current Version | Previous Version | Graphics & Text | Print | Product List | Glossary On
Versions: 1 2 3 4 5 6 7 8 9 10 11 12 13 14 15 16 17 18 19 20 21 22 23 24 25 26 27 28 29 30 31 32 33 34 35 36 37 38 39 40 41 42 43 44 45 46 47 48 49 50
000
ASUS43 KLOT 200510
RWRIL

ILLINOIS REGIONAL WEATHER ROUNDUP
NATIONAL WEATHER SERVICE CHICAGO/ROMEOVILLE IL
1200 AM CDT SUN APR 20 2014

NOTE: "FAIR" INDICATES FEW OR NO CLOUDS BELOW 12,000 FEET WITH NO
SIGNIFICANT WEATHER AND/OR OBSTRUCTIONS TO VISIBILITY.

* THESE STATIONS ARE NOT UNDER NWS QUALITY CONTROL. THEY ALSO MAY NOT
  REPORT WEATHER SUCH AS PRECIPITATION OR FOG.

ILZ001-002-007-009-015-016-024-200600-
NORTHWEST ILLINOIS

CITY           SKY/WX    TMP DP  RH WIND       PRES   REMARKS
MOLINE         CLEAR     56  36  47 S10       30.16R
STERLING*      PTCLDY    54  36  50 SE8       30.19R
SAVANNA*       PTCLDY    54  34  46 S6        30.17S
$$

ILZ003-004-008-010-011-017-018-200600-
NORTH CENTRAL ILLINOIS

CITY           SKY/WX    TMP DP  RH WIND       PRES   REMARKS
ROCKFORD       PTCLDY    53  37  54 SE9       30.23R
FREEPORT*      PTCLDY    54  41  62 SE12      30.21S
ROCHELLE*      PTCLDY    50  38  61 SE10      30.21S
DE KALB*       PTCLDY    51  37  58 SE9       30.23R
PERU*          PTCLDY    58  38  46 SE15G23   30.20S
$$

ILZ005-006-012>014-019>023-200600-
NORTHEAST ILLINOIS

CITY           SKY/WX    TMP DP  RH WIND       PRES   REMARKS
CHICAGO-OHARE  PTCLDY    54  35  48 SE12      30.23S
CHICAGO-MIDWAY MOCLDY    56  35  45 SE10      30.24S
AURORA         PTCLDY    54  37  52 SE13      30.23R
LANSING*       MOCLDY    53  32  45 SE12      30.25F
WAUKEGAN       PTCLDY    49  36  61 SE13      30.23S
DUPAGE AIRPORT PTCLDY    54  37  52 SE9       30.22S
KANKAKEE*      PTCLDY    53  37  54 SE10      30.26S
WHEELING       PTCLDY    48  37  65 CALM      30.24F
MORRIS*        PTCLDY    55  34  46 SE9       30.22F
ROMEOVILLE*    PTCLDY    54  35  49 SE12      30.24R
NORTHERLY ISL    N/A     48  41  76 SE5         N/A
$$

LMZ740>746-200600-
SOUTHERN LAKE MICHIGAN

STATION/POSITION SKY/WX   TEMP    WIND        PRES    VSBY  WAVE
                          AIR SEA DIR/SP/G                  HT/PER
                          (F)     (DEG/KT/KT) (MB)    (MI)  (FT/S)
WAUKEGAN HARBOR            43     170/  7/  8 1025.4S
HARRISON CRIB              48     150/ 10/ 12   N/A
BURNHAM HARBOR             47     130/  3/  6   N/A
CALUMET HARBOR             54     130/ 10/ 13 1024.9R
MICHIGAN CITY              53     100/ 11/ 15   N/A
$$

ILZ025>027-034>036-040-047-049-050-058-095>099-200600-
WEST-CENTRAL ILLINOIS

CITY           SKY/WX    TMP DP  RH WIND       PRES   REMARKS
QUINCY         PTCLDY    57  42  57 SE8       30.16S
GALESBURG*     CLEAR     57  40  53 SE5       30.17S
MACOMB*        CLEAR     53  39  58 S6        30.19S
JACKSONVILLE*  CLEAR     54  42  62 SE8       30.19S
PITTSFIELD*    CLEAR     58  43  57 S7        30.18S
$$

ILZ028>032-037-038-041>044-048-051>054-059>061-200600-
CENTRAL ILLINOIS

CITY           SKY/WX    TMP DP  RH WIND       PRES   REMARKS
PONTIAC        PTCLDY    52  39  62 SE7       30.23S
BLOOMINGTON    PTCLDY    50  37  60 SE10      30.23S
DECATUR        PTCLDY    50  38  63 SE3       30.22S
PEORIA         CLEAR     59  33  37 SE7       30.19F
LACON*         PTCLDY    55  39  54 SE9       30.18F
LINCOLN*       CLEAR     51  36  55 CALM      30.21S
SPRINGFIELD    CLEAR     58  37  45 SE8       30.19F
TAYLORVILLE    CLEAR     57  36  44 SE6       30.20F
$$

ILZ033-039-045-046-055>057-062-063-200600-
EAST-CENTRAL ILLINOIS

CITY           SKY/WX    TMP DP  RH WIND       PRES   REMARKS
CHAMPAIGN      PTCLDY    50  38  63 E7        30.24R
RANTOUL*       PTCLDY    52  40  64 CALM      30.25R
MATTOON        PTCLDY    57  38  48 SE5       30.22R
PARIS*         PTCLDY    50  42  75 CALM      30.25R
$$

ILZ079-100>102-200600-
SOUTHWEST ILLINOIS

CITY           SKY/WX    TMP DP  RH WIND       PRES   REMARKS
ALTON          CLEAR     54  42  63 E5        30.19F
BELLEVILLE     CLEAR     56  44  65 CALM      30.18S
CAHOKIA*       CLEAR     58  43  57 SE6       30.18S
SPARTA*        CLEAR     57  43  58 SE6       30.20S
$$

ILZ064>066-069>071-074>076-080>082-084>086-088>090-092>094-200600-
SOUTH-CENTRAL ILLINOIS

CITY           SKY/WX    TMP DP  RH WIND       PRES   REMARKS
CARBONDALE     CLEAR     54  44  69 CALM      30.19S
CAIRO*         CLEAR     57  46  65 CALM      30.18S
MARION         CLEAR     57  41  54 E3        30.19F
MT. VERNON     CLEAR     45  36  70 CALM      30.21S
CENTRALIA*       N/A     51  45  79 CALM      30.20S
SALEM*         CLEAR     56  44  64 E3        30.21S
METROPOLIS*    PTCLDY    55  42  60 CALM      30.18S
$$

ILZ067-068-072-073-078-083-087-091-200600-
SOUTHEAST ILLINOIS

CITY           SKY/WX    TMP DP  RH WIND       PRES   REMARKS
FAIRFIELD*     CLEAR     54  45  71 CALM      30.21S
HARRISBURG*    CLEAR     51  44  79 NW5       30.21S
ROBINSON*      PTCLDY    53  44  73 CALM      30.23R
CARMI*         CLEAR     52  48  85 W3        30.20S
$$

ABBREVIATIONS USED IN REMARKS
   TC - TEMPERATURE IN CELSIUS
  WCI - WIND CHILL INDEX
   HX - HEAT INDEX
  VSB - VISIBILITY
$$




USA.gov is the U.S. government's official web portal to all federal, state and local government web resources and services.